• Processing (Info)

  • MPEC 2016-V43 : 2016 VZ

    The following Minor Planet Electronic Circular may be linked-to from your own Web pages, but must not otherwise be redistributed electronically.

    A form allowing access to any MPEC is at the bottom of this page.


    Read MPEC 2016-V42 Read MPEC 2016-V44


    M.P.E.C. 2016-V43                                Issued 2016 Nov. 6, 22:05 UT
    
         The Minor Planet Electronic Circulars contain information on unusual
             minor planets and routine data on comets.  They are published
        on behalf of Division F of the International Astronomical Union by the
              Minor Planet Center, Smithsonian Astrophysical Observatory,
                              Cambridge, MA 02138, U.S.A.
    
                 Prepared using the Tamkin Foundation Computer Network
    
                                  MPC@CFA.HARVARD.EDU
                URL https://www.minorplanetcenter.net/    ISSN 1523-6714
    
                                        2016 VZ
    
    Observations:
         K16V00Z* C2016 11 05.24666 03 39 38.46 +18 01 17.4          19.5 VqEV043G96
         K16V00Z  C2016 11 05.25115 03 39 37.67 +18 01 40.6          19.8 VqEV043G96
         K16V00Z  C2016 11 05.25543 03 39 36.90 +18 02 03.2          19.8 VqEV043G96
         K16V00Z  C2016 11 05.26145 03 39 35.81 +18 02 35.2          19.7 VqEV043G96
         K16V00Z  C2016 11 05.29375 03 39 29.75 +18 05 25.2          19.3 VqEV043I52
         K16V00Z  C2016 11 05.29500 03 39 29.52 +18 05 31.8          19.3 VqEV043I52
         K16V00Z  C2016 11 05.29759 03 39 29.03 +18 05 45.7          19.3 VqEV043I52
         K16V00Z  C2016 11 05.29902 03 39 28.74 +18 05 52.8          18.8 VqEV043I52
         K16V00Z  C2016 11 05.39452 03 39 10.14 +18 14 11.8          20.1 VqEV043703
         K16V00Z  C2016 11 05.40657 03 39 07.80 +18 15 14.3          19.7 VqEV043703
         K16V00Z  C2016 11 05.41259 03 39 06.60 +18 15 44.4          19.5 VqEV043703
         K16V00Z  C2016 11 05.41932 03 39 05.34 +18 16 19.8          19.7 VqEV043G96
         K16V00Z  C2016 11 05.42118 03 39 04.97 +18 16 29.3          19.8 VqEV043G96
         K16V00Z  C2016 11 05.42244 03 39 04.73 +18 16 36.2          19.8 VqEV043G96
         K16V00Z  C2016 11 05.71482 03 38 30.34 +18 43 42.7          19.8 RoEV043300
         K16V00Z  C2016 11 05.71714 03 38 29.77 +18 43 55.8          19.9 RoEV043300
         K16V00Z  C2016 11 05.71945 03 38 29.35 +18 44 08.6          19.9 RoEV043300
         K16V00Z  C2016 11 05.72176 03 38 28.87 +18 44 22.1          20.1 RoEV043300
         K16V00Z KC2016 11 06.01585 03 37 54.74 +19 13 11.1                qEV043J95
         K16V00Z KC2016 11 06.02069 03 37 53.73 +19 13 41.9                qEV043J95
         K16V00Z KC2016 11 06.02547 03 37 52.70 +19 14 12.5          19.4 RqEV043J95
         K16V00Z  C2016 11 06.23253 03 37 30.03 +19 37 51.9          19.4 VqEV043G96
         K16V00Z  C2016 11 06.23391 03 37 29.74 +19 38 02.0                qEV043G96
         K16V00Z  C2016 11 06.23530 03 37 29.42 +19 38 11.3          19.5 VqEV043G96
         K16V00Z  C2016 11 06.23661 03 37 29.11 +19 38 20.6          19.4 VqEV043G96
         K16V00Z  C2016 11 06.72140 03 35 52.10 +20 37 28.9          19.2 RoEV043300
         K16V00Z  C2016 11 06.72502 03 35 51.10 +20 37 56.6          19.1 RoEV043300
         K16V00Z  C2016 11 06.72863 03 35 50.09 +20 38 24.3          19.2 RoEV043300
         K16V00Z  C2016 11 06.73225 03 35 49.12 +20 38 52.1          19.2 RoEV043300
    
    Observer details:
    300 Bisei Spaceguard Center--BATTeRS.  Observers S. Okumura, T. Nimura.  1.0-m
        f/3.0 reflector + CCD.
    703 Catalina Sky Survey.  Observer J. A. Johnson.  Measurers E. J. Christensen,
        D. C. Fuls, A. R. Gibbs, A. D. Grauer, J. A. Johnson, R. A. Kowalski,
        S. M. Larson, G. J. Leonard, R. G. Matheny, R. L. Seaman, F. C. Shelly.
        0.68-m Schmidt + CCD.
    G96 Mt. Lemmon Survey.  Observers A. R. Gibbs, R. A. Kowalski.  Measurers
        E. J. Christensen, D. C. Fuls, A. R. Gibbs, A. D. Grauer, J. A. Johnson,
        R. A. Kowalski, S. M. Larson, G. J. Leonard, R. G. Matheny, R. L. Seaman,
        F. C. Shelly.  1.5-m reflector + 10K CCD.
    I52 Steward Observatory, Mt. Lemmon Station.  Observer R. G. Matheny.
        Measurers E. J. Christensen, D. C. Fuls, A. R. Gibbs, A. D. Grauer,
        J. A. Johnson, R. A. Kowalski, S. M. Larson, G. J. Leonard, R. G. Matheny,
        R. L. Seaman, F. C. Shelly.  1.0-m reflector + CCD.
    J95 Great Shefford.  Observer P. Birtwhistle.  0.40-m f/6.0 Schmidt-Cassegrain
        + CCD.
    
    Orbital elements:
    2016 VZ                                                  Earth MOID = 0.0076 AU
    Epoch 2016 July 31.0 TT = JDT 2457600.5                 MPC
    M 198.03413              (2000.0)            P               Q
    n   0.93645184     Peri.  107.65446     -0.88125002     -0.46971120
    a   1.0346952      Node    44.36901     +0.40009974     -0.80062157
    e   0.3245142      Incl.    4.31627     +0.25163188     -0.37198990
    P   1.05           H   25.9           G   0.15           U   7
    Residuals in seconds of arc
    161105 G96  0.3-  0.4+    161105 703  0.2-  0.5-    161106 J95  0.2-  0.0
    161105 G96  0.1-  0.2-    161105 G96  0.0   0.2+    161106 G96  0.4-  0.3+
    161105 G96  0.0   0.2-    161105 G96  0.3-  0.1+    161106 G96  0.0   0.7+
    161105 G96  0.1+  0.0     161105 G96  0.3-  0.5+    161106 G96  0.0   0.2+
    161105 I52  0.1-  0.2-    161105 300  0.5+  0.1+    161106 G96  0.1-  0.3+
    161105 I52  0.0   0.2-    161105 300  0.7-  0.1+    161106 300  0.2+  0.2+
    161105 I52  0.1+  0.1+    161105 300  0.1+  0.2-    161106 300  0.1+  0.0
    161105 I52  0.2-  0.3-    161105 300  0.1+  0.2+    161106 300  0.2-  0.1-
    161105 703  0.7+  0.3+    161106 J95  0.1+  0.2-    161106 300  0.0   0.2-
    161105 703  0.5+  0.5+    161106 J95  0.2+  0.2-
    
    Ephemeris:
    2016 VZ                  a,e,i = 1.03, 0.32, 4                   q = 0.6989
    Date    TT    R. A. (2000) Decl.     Delta      r     Elong.  Phase     V
    2016 10 07    03 36 29.7 +10 00 48   0.2239  1.1773   138.9    34.0    24.4
    ...
    2016 10 22    03 44 48.2 +11 16 44   0.1256  1.1068   151.1    25.7    22.8
    ...
    2016 10 30    03 44 59.4 +13 15 55   0.07732 1.0655   158.8    19.7    21.5
    ...
    2016 11 05    03 39 58.5 +17 41 55   0.04282 1.0331   165.8    13.6    19.9
    2016 11 06    03 37 56.2 +19 13 31   0.03722 1.0275   167.0    12.5    19.6
    2016 11 07    03 35 04.6 +21 17 05   0.03168 1.0220   168.1    11.6    19.2
    ...
    2016 11 13    17 49 25.5 +55 28 28   0.0084750.9882    80.5    99.0    19.1
    ...
    2016 11 21    16 03 25.1 +00 34 29   0.04921 0.9420    20.9   158.0    29.6
    ...
    2016 12 06    15 57 22.2 -06 19 47   0.1402  0.8556    20.7   156.0    31.1
    
    A. U. Tomatic                (C) Copyright 2016 MPC           M.P.E.C. 2016-V43
    

    Read MPEC 2016-V42 Read MPEC 2016-V44


    MPEC number:

    Enter an MPEC number in one of the following forms:

    • 1997-B01 (the full form)
    • J97B01 (the packed version of the full form)
    • B01 (the abbreviated form)